Showing default

OV2-5, 3428

Orbit data source: Space-Track

OV2-5, 3428 is a payload satellite owned by SAMSO (US) in GEO that was launched on Thu, 26 Sep 1968 UTC via a TITAN IIIC launch vehicle from the Air Force Eastern Test Range (AFETR). Payload-class satellites include a variety of spacecraft equipped with specific instruments for various scientific and technological missions. These include communications satellites like Starlink; space stations such as the ISS; scientific satellites like the Hubble; Earth observation satellites from companies like Planet Labs, Umbra, and HawkEye 360; GPS; miniature CubeSats for education and research; and military/defense satellites.

Not visible in the next 10 days
Identifier
3428, 1968-081A
Orbit
GEO
Country
Flag of USUS
Related business
Manufacturer
Northrop
Mission
Non-operational Civil Science
Bus & Motor
OV2, Unknown motor
Mass
~200 kg wet, ~200 kg dry
Launch date (UTC)
1968-09-26 (57 years ago)
Launch vehicle
TITAN IIIC
Launch site
Air Force Eastern Test Range (AFETR)
Object type
Payload
Rocket body
Debris
Shape & HBR
Box + 4 Pan, 1.3 m
Radar Cross Section
1.167 m², Medium (>0.1 m² and < 1m²)

Expand to show TLE details & history
Last TLE update: 1 day ago

TLE from 1 day ago
0 OV2-5
1 03428U 68081A   25241.96844867 -.00000215  00000-0  00000-0 0  9995
2 03428   1.4417  39.0608 0079135 288.8797  64.4680  1.01561729118095
Epoch: 2025-08-29T23:14Z
TLE epoch observation values (Epoch: 2025-08-29T23:14:33.965Z)
Latitude
-0.16367°
Longitude
66.17878°
Altitude
35,286.915 km
Speed
3.098 km/s
True Right ascension
02h 12m 55s
True Declination
0° 09' 49"
Sunlit
Object was in daylight at epoch
Visualization orbit readout
Latitude
Unknown
Longitude
Unknown
Altitude
Unknown
Speed
Unknown
Apparent Right ascension
Unknown
Apparent Declination
Unknown
Sunlit
N/A
Visualization observer readout
Local Sidereal Time
17:20:22
Azimuth
Unknown
Elevation
Unknown
Doppler factor
Unknown
Orbital elements
Apogee altitude
35,760.736 km
Perigee altitude
35,099.04 km
Semi-major axis
41,808.025 km
Eccentricity
0.00791
Inclination
1.4417°
RAAN
39.0608°
Arg. of periapsis
288.8797°
True anomaly
65.28974°
Mean anomaly
64.468°
Eccentric anomaly
64.87852°
Mean motion
0.25389 °/min
Orbital period
1,417.91 mins
BSTAR
0
Loading maneuver chart data...
Computing Atmospheric mass density...

Documentation

Showing up to 5 results
|